This demonstration page uses our WeatherBlox Daily Observations layout. Learn more.

Hourly Observations for March 31, 2019

Temp ( °F °C ) Dew Point ( °F °C ) Humidity (%) Winds ( mph kmh ) Pressure ( in mb ) Visibility ( mi km ) Precip ( " mm )
12:15 am 00:15 Clear 27 -2.7 23 -5 84 84 WNW 5 7 30.52 1034 10 16.0934 0 0
12:35 am 00:35 Clear 27 -3 23 -5.1 86 86 W 6 9 30.53 1034 10 16.0934 0 0
12:55 am 00:55 Clear 27 -3 23 -5.1 86 86 WNW 5 7 30.54 1034 10 16.0934 0 0
1:15 am 01:15 Clear 26 -3.4 23 -5.1 88 88 WNW 5 7 30.54 1034 10 16.0934 0 0
1:35 am 01:35 Clear 26 -3.3 23 -5 88 88 WNW 5 7 30.54 1034 10 16.0934 0 0
1:55 am 01:55 Clear 26 -3.5 23 -5 89 89 WNW 6 9 30.54 1034 10 16.0934 0 0
2:15 am 02:15 Clear 26 -3.6 23 -5 90 90 WNW 6 9 30.54 1034 10 16.0934 0 0
2:35 am 02:35 Clear 25 -4 23 -5.1 92 92 WNW 6 9 30.54 1034 10 16.0934 0 0
2:55 am 02:55 Clear 24 -4.2 23 -5.2 93 93 NW 5 7 30.54 1034 10 16.0934 0 0
3:15 am 03:15 Clear 24 -4.6 22 -5.4 94 94 WNW 6 9 30.54 1034 10 16.0934 0 0
3:35 am 03:35 Clear 24 -4.7 22 -5.6 94 94 WNW 6 9 30.55 1035 10 16.0934 0 0
3:55 am 03:55 Clear 24 -4.5 22 -5.4 94 94 WNW 5 7 30.55 1035 10 16.0934 0 0
4:15 am 04:15 Clear 23 -4.9 22 -5.6 95 95 NW 6 9 30.55 1035 10 16.0934 0 0
4:35 am 04:35 Clear 23 -4.9 22 -5.4 96 96 NNW 3 6 30.55 1035 10 16.0934 0 0
4:55 am 04:55 Clear 23 -4.8 22 -5.4 96 96 NW 3 6 30.54 1034 10 16.0934 0 0
5:15 am 05:15 Clear 23 -5.1 22 -5.6 96 96 Calm 30.55 1034 10 16.0934 0 0
5:35 am 05:35 Clear 22 -5.3 22 -5.7 97 97 Calm 30.55 1034 10 16.0934 0 0
5:55 am 05:55 Clear 22 -5.4 22 -5.7 98 98 Calm 30.55 1035 10 16.0934 0 0
6:15 am 06:15 Clear 23 -5 22 -5.4 97 97 Calm 30.55 1034 10 16.0934 0 0
6:35 am 06:35 Clear 23 -5.2 22 -5.6 97 97 Calm 30.55 1034 10 16.0934 0 0
6:55 am 06:55 Clear 23 -5.1 22 -5.5 97 97 Calm 30.56 1035 10 16.0934 0 0
7:15 am 07:15 Clear 23 -4.8 23 -5.2 97 97 Calm 30.55 1035 10 16.0934 0 0
7:35 am 07:35 Sunny 22 -5.5 22 -5.7 99 99 Calm 30.56 1035 10 16.0934 0 0
7:55 am 07:55 Sunny 24 -4.7 23 -5.1 97 97 Calm 30.55 1035 10 16.0934 0 0
8:15 am 08:15 Sunny 26 -3.6 24 -4.3 95 95 Calm 30.55 1035 10 16.0934 0 0
8:35 am 08:35 Sunny 27 -2.8 25 -3.8 93 93 Calm 30.54 1034 10 16.0934 0 0
8:55 am 08:55 Sunny 28 -2 27 -3 93 93 SW 3 6 30.53 1034 10 16.0934 0 0
9:15 am 09:15 Sunny 30 -1.2 27 -2.6 90 90 SW 5 7 30.52 1033 10 16.0934 0 0
9:35 am 09:35 Sunny 31 -0.3 27 -2.7 84 84 SSW 6 9 30.5 1033 10 16.0934 0 0
9:55 am 09:55 Sunny 32 0.1 27 -2.7 82 82 SSW 7 11 30.5 1033 10 16.0934 0 0
10:15 am 10:15 Sunny 34 1 27 -2.7 77 77 SW 6 9 30.48 1032 10 16.0934 0 0
10:35 am 10:35 Sunny 35 1.9 27 -2.6 72 72 SW 7 11 30.47 1032 10 16.0934 0 0
10:55 am 10:55 Sunny 37 2.6 27 -2.7 68 68 SW 8 13 30.46 1032 10 16.0934 0 0
11:15 am 11:15 Sunny 38 3.2 26 -3.2 63 63 SW 8 13 30.46 1031 10 16.0934 0 0
11:35 am 11:35 Sunny 39 3.7 27 -3 62 62 SW 10 17 30.45 1031 10 16.0934 0 0
11:55 am 11:55 Sunny 40 4.4 26 -3.3 58 58 SW 8 13 30.43 1031 10 16.0934 0 0
12:15 pm 12:15 Sunny 41 4.9 27 -2.7 58 58 SW 9 15 30.42 1030 10 16.0934 0 0
12:35 pm 12:35 Sunny 43 6.3 28 -2.3 54 54 SW 9 15 30.41 1030 10 16.0934 0 0
12:55 pm 12:55 Sunny 44 6.7 27 -2.8 51 51 SW 13 20 30.39 1029 10 16.0934 0 0
1:15 pm 13:15 Sunny 45 7 25 -4 46 46 SW 9 15 30.37 1028 10 16.0934 0 0
1:35 pm 13:35 Sunny 46 8 25 -4 43 43 SW 12 19 30.35 1028 10 16.0934 0 0
1:55 pm 13:55 Sunny 47 8.5 25 -4 41 41 SW 15 24 30.34 1027 10 16.0934 0 0
2:15 pm 14:15 Sunny 48 8.9 24 -4.6 38 38 SW 12 19 30.32 1027 10 16.0934 0 0
2:35 pm 14:35 Sunny 49 9.3 25 -4 39 39 WSW 13 20 30.31 1026 10 16.0934 0 0
2:55 pm 14:55 Sunny 50 10 25 -4.1 37 37 WSW 13 20 30.28 1025 10 16.0934 0 0
3:15 pm 15:15 Sunny 50 10.2 24 -4.2 36 36 SW 9 15 30.27 1025 10 16.0934 0 0
3:35 pm 15:35 Sunny 51 10.6 25 -3.9 36 36 SW 13 20 30.26 1025 10 16.0934 0 0
3:55 pm 15:55 Sunny 52 10.9 25 -4 35 35 SW 10 17 30.24 1024 10 16.0934 0 0
4:15 pm 16:15 Sunny 52 11.1 24 -4.3 34 34 W 13 20 30.23 1024 10 16.0934 0 0
4:35 pm 16:35 Sunny 53 11.6 25 -3.9 34 34 WSW 12 19 30.22 1023 10 16.0934 0 0
4:55 pm 16:55 Sunny 53 11.6 24 -4.4 33 33 SW 8 13 30.22 1023 10 16.0934 0 0
5:15 pm 17:15 Sunny 53 11.6 26 -3.3 35 35 SW 10 17 30.21 1023 10 16.0934 0 0
5:35 pm 17:35 Sunny 53 11.8 24 -4.2 33 33 WSW 7 11 30.2 1023 10 16.0934 0 0
5:55 pm 17:55 Sunny 53 11.7 25 -3.7 34 34 WSW 9 15 30.19 1022 10 16.0934 0 0
6:15 pm 18:15 Sunny 53 11.6 26 -3.2 36 36 WSW 9 15 30.19 1022 10 16.0934 0 0
6:35 pm 18:35 Sunny 53 11.5 25 -3.7 35 35 SW 7 11 30.19 1022 10 16.0934 0 0
6:55 pm 18:55 Sunny 52 11.1 26 -3.6 36 36 SW 8 13 30.19 1022 10 16.0934 0 0
7:15 pm 19:15 Sunny 51 10.8 26 -3.4 37 37 SW 6 9 30.19 1022 10 16.0934 0 0
7:35 pm 19:35 Sunny 50 9.8 26 -3.4 40 40 SSW 7 11 30.19 1023 10 16.0934 0 0
7:55 pm 19:55 Sunny 48 8.9 27 -2.7 44 44 S 7 11 30.2 1023 10 16.0934 0 0
8:15 pm 20:15 Clear 47 8.2 27 -3 45 45 S 8 13 30.2 1023 10 16.0934 0 0
8:35 pm 20:35 Clear 44 6.8 27 -3 50 50 S 7 11 30.21 1023 10 16.0934 0 0
8:55 pm 20:55 Clear 43 6.3 27 -3 52 52 S 8 13 30.22 1023 10 16.0934 0 0
9:15 pm 21:15 Clear 43 6 27 -3 53 53 S 9 15 30.23 1024 10 16.0934 0 0
9:35 pm 21:35 Clear 42 5.8 26 -3.2 53 53 S 10 17 30.23 1024 10 16.0934 0 0
9:55 pm 21:55 Clear 42 5.4 26 -3.3 54 54 S 12 19 30.23 1024 10 16.0934 0 0
10:15 pm 22:15 Clear 40 4.7 26 -3.2 57 57 S 9 15 30.24 1024 10 16.0934 0 0
10:35 pm 22:35 Clear 39 4.1 26 -3.2 59 59 S 9 15 30.25 1024 10 16.0934 0 0
10:55 pm 22:55 Clear 38 3.6 26 -3.2 61 61 S 8 13 30.25 1024 10 16.0934 0 0
11:15 pm 23:15 Clear 39 3.7 26 -3.5 60 60 SSW 10 17 30.25 1024 10 16.0934 0 0
11:35 pm 23:35 Clear 39 3.7 26 -3.6 59 59 SSW 9 15 30.25 1024 10 16.0934 0 0
11:55 pm 23:55 Clear 37 2.8 26 -3.2 65 65 SSW 7 11 30.26 1025 10 16.0934 0 0

Powered by AerisWeather